Theta_e
331 330 326 326 324 322 315 306 297 294 296 291 289 291 292 296 294 294 294 294 295 297 300 301 302 303 301 299 299 301 302 299 297 293 290 298 311 316 321 324 324 324 325 324 324 324 328 337 340 340 340 340 340 341 342 343 343 343 344 344 344 344 344 345 344 344 345 345 345 344 344 344 343 343 343 342 342 342 342 342 342 343 345 346 347 347 347 347 346 346 345 344 342 341 341 341 342
328 323 323 324 321 318 311 301 293 291 288 286 292 291 292 293 295 291 292 292 292 299 298 301 300 301 302 303 303 302 301 303 303 304 304 309 311 313 320 324 324 323 323 323 323 323 324 329 339 339 339 339 340 340 340 340 340 341 341 341 341 342 342 342 342 342 342 342 342 342 341 341 340 340 340 340 340 339 339 339 340 340 341 342 344 346 346 344 344 344 342 341 339 337 337 337 338
326 322 322 319 317 314 310 302 296 287 287 285 287 290 293 293 292 292 292 292 297 299 297 299 299 300 300 301 299 299 295 305 305 305 305 311 312 315 316 323 323 323 322 322 323 322 322 326 337 338 339 338 339 339 338 338 338 338 339 339 340 339 339 340 340 339 340 339 339 339 339 338 338 338 338 338 338 337 336 336 336 338 339 339 341 342 342 341 340 340 339 337 335 333 333 332 333
320 323 321 314 311 305 300 296 289 288 287 286 287 292 291 291 293 293 296 296 298 297 298 299 299 299 299 297 298 302 301 302 304 305 305 309 312 317 314 322 323 323 322 322 322 321 322 330 337 336 336 337 337 337 337 336 336 336 336 336 337 337 337 337 336 336 336 336 336 336 336 336 335 335 335 335 334 333 332 332 332 332 335 336 337 337 336 335 334 333 333 332 330 329 328 328 328
319 320 322 312 307 304 298 295 292 289 290 288 287 291 293 292 295 295 297 297 296 296 298 298 297 300 301 300 300 299 296 303 305 308 306 310 310 315 316 321 322 321 321 321 322 321 322 333 336 335 335 336 336 336 335 335 335 335 335 335 335 334 334 334 334 334 334 334 334 334 335 334 334 333 333 332 331 331 330 330 329 329 330 332 332 333 332 331 330 330 328 328 327 326 325 325 325
317 316 317 313 307 308 300 296 292 290 295 291 294 295 293 294 297 296 297 296 298 297 297 297 297 298 300 300 302 300 302 301 304 306 307 310 311 313 318 321 320 320 320 320 320 321 321 333 335 334 335 335 335 335 334 334 334 333 333 334 334 334 334 333 333 333 333 333 333 333 333 332 332 331 330 329 329 329 328 328 328 327 327 329 329 330 328 327 327 327 326 325 326 324 324 324 325
315 310 309 303 305 301 294 290 289 290 297 297 295 296 298 295 297 296 297 299 299 298 298 300 297 298 297 298 302 303 306 307 306 306 310 310 313 314 318 319 319 318 318 319 318 320 320 333 333 334 334 334 334 334 333 334 334 333 333 334 334 334 334 333 332 331 331 331 331 331 330 329 329 328 327 327 327 327 327 327 326 325 325 325 326 327 326 326 326 326 325 325 324 323 323 324 324
316 309 305 295 295 294 292 288 290 291 292 299 295 295 294 298 296 295 296 296 296 296 299 298 297 295 295 301 297 301 305 306 307 307 309 311 313 313 315 318 317 316 317 317 317 318 326 332 333 332 333 333 333 333 333 334 333 333 333 333 333 333 332 332 330 330 329 329 329 328 328 328 328 327 326 326 325 325 326 325 325 325 324 324 325 325 325 325 325 325 324 324 323 322 322 322 322
309 311 304 297 294 291 289 290 290 292 293 294 296 297 304 299 297 296 295 296 297 295 298 298 297 295 292 298 296 300 302 305 306 310 310 312 313 312 316 316 316 315 315 316 316 317 320 330 332 331 331 333 333 333 333 333 332 332 331 331 331 331 330 330 328 327 327 327 327 327 327 326 327 326 325 325 324 324 324 324 324 324 323 323 323 323 323 323 324 323 323 323 322 322 322 322 321
307 303 297 294 290 292 287 289 291 293 294 296 297 298 298 297 297 296 296 296 296 295 297 297 297 295 295 296 297 300 300 305 307 308 310 312 312 310 314 315 315 314 313 314 314 316 317 326 330 330 331 332 332 333 332 331 330 330 330 330 329 329 329 328 327 326 326 326 326 325 325 325 325 325 324 324 323 322 322 323 323 322 322 321 322 322 321 322 322 322 321 321 321 321 320 319 319
299 302 299 296 290 289 289 288 289 294 293 295 295 294 298 299 297 295 295 295 296 295 298 298 299 295 297 296 296 300 303 304 307 307 309 311 309 308 313 314 314 314 313 312 312 314 317 320 326 329 329 330 330 330 330 329 329 329 328 328 328 327 327 326 325 325 324 324 323 323 322 322 323 323 323 322 321 321 320 320 320 320 320 320 320 320 320 320 321 321 319 319 319 319 318 318 318
299 299 297 289 287 287 287 288 290 293 295 294 295 297 296 298 296 296 295 297 296 296 297 298 298 296 296 294 296 298 303 302 306 308 309 308 306 306 311 312 313 313 312 312 312 312 313 315 320 325 327 328 328 328 328 328 328 327 327 327 327 326 326 326 325 325 324 322 321 321 320 320 320 320 320 321 320 319 319 319 320 320 319 319 319 319 319 320 320 318 317 316 316 316 316 317 316
298 296 291 290 286 288 287 290 291 293 292 291 295 299 296 296 297 296 294 295 295 295 296 300 299 299 295 295 296 299 300 302 304 306 307 304 303 305 309 311 311 311 311 311 311 310 310 311 314 316 320 325 326 326 327 326 326 326 326 326 325 325 325 324 324 323 322 322 320 319 317 316 315 316 318 319 318 317 317 318 318 318 318 318 319 318 318 318 317 315 315 314 314 314 314 315 314
299 296 294 290 289 289 291 289 287 289 288 292 295 296 297 298 297 295 294 295 295 296 297 300 299 298 297 295 295 297 300 303 302 304 302 299 301 304 307 308 308 309 309 309 310 309 309 309 311 312 316 317 316 321 323 325 325 325 324 323 323 322 322 322 321 320 320 319 318 316 315 314 313 313 313 316 317 315 315 316 317 317 316 317 317 317 316 316 315 314 314 313 312 312 312 312 312
303 300 292 290 288 286 286 290 288 288 289 292 296 297 298 299 298 293 296 295 295 298 301 301 300 299 293 297 294 298 301 302 302 302 299 299 300 302 303 305 307 307 308 308 309 308 308 308 309 309 309 310 311 312 314 319 323 323 322 322 321 321 320 319 318 316 315 315 315 313 312 311 311 311 311 313 313 312 311 313 315 315 315 316 315 315 315 314 313 313 312 311 310 310 309 309 310
302 296 293 293 287 287 287 289 290 291 291 292 296 296 297 297 298 298 297 298 299 300 299 299 301 299 296 298 297 298 303 302 302 299 298 298 298 300 300 302 304 304 305 306 306 306 307 307 306 306 306 305 306 306 309 311 319 320 321 320 320 319 318 317 316 314 313 312 311 311 310 307 307 306 307 306 309 310 310 311 312 312 313 314 314 313 313 312 311 310 310 309 308 307 306 306 306
300 296 293 286 288 287 287 290 291 290 291 293 293 296 296 294 297 297 296 297 298 298 299 297 300 300 295 296 298 301 302 303 302 297 297 296 297 296 297 297 299 300 303 303 305 305 305 306 305 304 303 303 303 304 306 307 312 317 317 317 317 316 316 315 314 313 310 308 306 308 304 298 298 299 300 300 305 302 307 310 309 309 310 311 312 311 311 311 310 309 308 307 306 304 302 301 302
300 294 287 285 287 288 290 292 291 294 295 294 296 294 295 294 294 299 298 297 296 295 297 297 298 294 297 297 300 302 302 301 298 297 296 295 295 295 295 296 296 299 299 300 302 303 303 304 304 302 302 301 302 304 304 306 308 311 305 307 306 310 311 310 305 301 306 301 307 299 296 298 296 296 299 307 301 302 304 308 308 306 307 308 309 309 309 309 308 307 307 305 304 302 299 292 294
298 290 287 287 286 292 294 295 294 294 294 293 293 292 294 295 295 296 297 293 294 294 294 295 297 296 297 298 298 300 300 298 297 297 296 295 295 295 296 296 296 296 297 298 300 301 302 303 302 301 301 300 300 301 303 304 303 302 301 302 304 308 305 302 299 300 296 298 298 296 296 296 295 296 298 300 301 307 304 306 305 304 303 303 304 306 306 306 306 305 304 303 301 299 291 290 291
297 293 288 289 292 292 294 295 297 294 296 294 294 294 293 295 296 297 295 295 292 293 294 294 295 298 296 296 296 298 299 298 297 297 296 295 295 296 295 295 295 296 298 298 299 300 300 301 301 301 300 299 300 299 301 301 299 298 299 300 301 300 299 299 296 296 296 296 297 295 294 296 295 297 306 305 303 297 301 304 302 302 301 300 298 296 300 301 302 302 301 299 296 293 290 289 290
296 295 290 292 292 294 298 297 296 294 294 295 293 294 293 292 294 295 292 293 294 295 296 298 297 298 297 295 296 297 297 296 296 296 296 296 296 297 297 296 296 297 297 298 297 298 299 300 300 299 299 298 298 298 299 298 297 296 296 297 297 296 297 296 296 295 295 295 295 295 295 295 295 296 294 293 292 292 291 291 291 290 291 291 295 288 289 291 291 289 290 292 289 290 289 289 290
296 297 298 297 293 294 297 296 294 294 293 295 293 293 295 294 294 295 293 294 296 296 297 298 299 300 297 295 296 296 296 296 296 295 295 295 295 295 296 296 296 294 295 296 296 297 298 299 299 299 299 297 297 297 297 298 297 295 295 296 296 296 296 295 296 295 294 295 295 295 296 294 293 292 292 291 291 291 290 290 289 288 289 289 291 288 288 289 288 288 289 289 289 289 289 289 290
295 295 296 296 296 296 296 298 295 293 295 294 293 294 295 294 294 291 294 296 300 298 295 298 300 300 299 299 297 296 296 296 295 295 296 295 295 296 296 297 296 295 295 296 297 297 298 298 298 299 299 297 295 296 295 297 296 295 295 296 295 295 295 295 294 294 294 294 295 295 294 292 292 291 291 291 290 291 290 289 288 288 288 288 290 288 288 288 288 288 288 288 288 288 289 289 289
298 296 294 297 296 297 299 299 296 293 293 295 294 293 295 293 293 292 293 299 300 300 293 297 298 298 297 297 296 297 296 296 296 297 297 296 296 296 297 296 297 296 295 295 296 296 298 297 298 298 299 297 295 295 295 296 296 295 295 298 296 297 295 295 294 294 294 294 295 294 294 292 292 291 291 290 290 290 290 289 289 288 288 288 289 289 288 287 287 287 288 287 288 288 288 288 288
296 296 296 298 296 296 296 294 292 291 292 292 292 293 296 293 294 292 296 299 300 298 297 296 294 294 296 297 296 297 297 297 297 297 297 297 297 298 297 297 296 296 294 295 295 296 297 298 297 298 298 298 297 295 295 296 296 295 295 296 295 299 294 294 294 294 293 293 294 294 293 291 291 291 290 290 289 289 289 288 287 287 287 287 288 288 288 287 287 287 288 287 287 287 287 287 287
295 298 296 293 294 294 293 293 293 293 294 292 293 294 295 293 293 294 298 301 300 297 296 297 295 293 294 297 297 297 297 297 297 297 297 298 297 296 296 297 296 295 296 295 295 296 296 298 297 297 298 298 297 296 295 296 296 294 295 296 295 298 294 293 293 293 292 292 293 293 293 291 291 291 290 289 289 289 288 288 288 287 287 287 287 288 288 287 286 286 287 287 287 287 286 287 287
293 294 293 295 295 294 294 293 296 293 293 290 294 295 295 293 294 294 300 299 297 296 297 296 294 296 295 296 297 297 297 297 297 298 297 296 296 296 297 297 296 297 296 295 295 295 297 297 297 297 298 299 297 296 295 296 296 295 295 296 295 296 294 293 293 292 291 291 292 292 292 292 291 290 290 289 288 288 288 287 286 286 286 287 287 287 288 287 286 287 287 286 287 286 286 286 287
295 294 292 294 293 293 294 293 294 294 295 293 295 294 294 290 292 295 300 295 293 294 294 295 294 295 296 296 296 297 297 298 299 297 297 296 296 297 297 297 297 297 296 295 296 296 296 296 297 297 297 298 297 296 296 295 295 295 296 295 295 295 294 293 292 292 292 291 291 291 291 291 292 290 290 289 289 288 287 287 286 286 286 286 287 286 287 287 287 287 287 287 287 286 285 285 287
294 294 292 293 292 294 297 295 296 293 295 291 293 292 292 290 290 297 299 300 297 294 293 292 293 295 295 295 295 295 297 298 297 297 298 299 299 299 298 299 298 297 297 297 296 296 295 296 296 296 297 297 297 296 296 295 295 295 295 295 295 295 294 293 291 291 291 291 291 291 291 291 291 290 289 289 291 288 287 287 286 287 286 286 287 287 286 285 286 286 286 287 286 285 285 285 286
295 293 291 292 291 290 297 294 294 293 293 291 293 286 287 293 295 297 300 297 296 293 295 295 295 295 295 295 295 295 296 296 296 298 299 299 299 299 298 299 299 299 297 296 295 295 296 297 297 297 296 296 296 296 295 295 295 295 295 294 295 294 293 292 292 291 291 291 291 290 290 291 290 290 289 289 288 288 287 287 286 285 285 286 286 286 285 285 285 285 285 285 288 284 283 284 284
291 289 290 287 285 286 294 293 290 291 291 293 294 287 290 294 297 297 297 295 294 295 296 296 296 295 295 295 295 296 296 297 298 299 299 299 300 299 299 299 298 299 297 295 295 296 296 296 297 296 297 296 296 295 295 294 295 295 294 293 294 294 293 292 291 291 291 291 290 290 290 291 290 289 289 289 288 287 287 286 285 285 286 286 285 285 284 284 284 285 285 283 282 283 283 285 284
288 288 284 282 286 287 293 292 290 292 291 291 293 286 290 295 298 299 294 293 292 293 294 295 295 295 295 295 295 296 297 297 297 298 299 299 299 299 299 298 298 298 297 296 296 295 295 295 297 296 296 295 296 295 294 294 295 294 294 295 293 293 292 291 291 291 291 291 290 289 290 290 289 289 288 288 288 287 286 286 285 285 286 285 285 285 285 284 284 285 284 283 282 282 284 282 283
284 288 284 286 282 285 288 292 289 294 291 291 293 289 287 290 296 298 295 294 292 293 293 294 294 294 294 295 295 296 297 297 297 297 298 299 299 300 299 299 298 298 298 297 295 295 295 295 296 295 295 295 295 295 294 294 294 294 293 293 293 292 292 291 291 291 290 290 290 289 289 290 289 289 288 288 287 286 286 285 285 286 286 285 284 284 284 285 284 285 283 285 283 282 282 282 282
284 284 284 284 285 285 285 289 290 288 292 289 291 289 291 295 295 292 289 290 290 290 292 293 293 294 295 295 295 295 296 297 298 298 298 298 299 299 300 300 299 298 298 297 296 295 295 295 295 295 295 295 295 294 294 293 294 293 292 292 293 292 291 291 290 290 290 290 289 289 289 290 289 288 288 287 286 286 286 285 285 285 285 284 284 283 283 283 283 282 282 283 283 282 281 281 282
284 282 282 284 284 286 288 286 288 289 289 290 289 288 290 293 295 296 297 294 290 291 292 293 293 293 294 294 295 295 296 296 298 300 300 298 298 298 299 299 298 298 298 297 296 295 295 294 295 295 294 294 294 294 293 293 292 291 290 291 291 290 290 289 290 289 290 290 289 289 289 289 289 288 287 287 286 286 285 285 285 285 285 284 284 283 283 284 283 282 282 282 283 282 281 282 282
286 286 286 283 284 285 286 291 291 292 290 287 288 289 291 291 293 295 296 296 295 295 293 292 292 294 294 294 295 295 296 296 299 300 298 297 297 298 299 299 298 298 298 296 295 294 294 294 294 294 294 294 294 293 292 291 291 291 290 288 289 289 289 289 289 290 289 289 290 289 289 288 288 288 287 286 286 286 285 285 285 285 284 284 283 283 282 282 282 281 281 282 281 282 283 282 281
288 286 284 285 286 287 289 291 292 289 288 288 290 291 291 292 293 295 295 295 294 294 294 295 294 294 295 296 296 296 296 297 301 298 298 296 296 297 298 298 297 297 296 295 294 294 294 294 293 293 293 293 293 292 291 291 290 289 289 290 290 290 289 289 289 289 288 289 289 289 289 288 288 287 287 286 286 286 285 285 285 284 284 284 283 283 283 282 282 282 283 284 281 280 280 280 281
288 287 285 287 285 286 290 291 292 288 288 287 289 290 290 292 293 295 295 292 293 294 295 295 295 295 295 295 296 297 298 299 299 297 295 294 295 296 296 296 296 295 295 294 294 294 294 293 293 293 293 293 293 293 292 292 292 292 291 291 291 290 289 289 288 288 289 289 289 289 288 287 287 287 287 286 286 285 284 284 284 284 284 283 283 283 282 284 283 282 282 280 281 280 279 281 282
287 286 286 284 286 288 291 291 293 291 286 288 290 289 290 291 292 294 294 294 296 296 296 297 297 296 295 295 296 296 297 298 299 299 297 294 294 295 295 296 296 297 296 295 295 294 293 293 293 293 293 293 293 293 292 292 292 292 291 290 291 289 289 289 289 289 289 288 288 288 288 287 287 286 286 286 285 285 284 284 284 284 284 284 283 282 282 282 281 282 281 280 279 280 280 282 280
284 285 282 284 288 284 286 286 288 287 289 283 282 285 288 290 291 291 294 295 296 297 296 296 297 296 296 297 297 298 297 297 297 298 299 294 293 294 294 294 295 296 295 294 294 293 293 293 293 293 292 292 293 293 293 292 292 290 289 289 289 289 287 288 287 287 287 287 287 288 288 287 287 286 286 286 286 285 284 284 284 283 283 284 283 282 281 281 281 280 280 281 280 278 277 279 281
287 287 286 286 287 288 287 287 286 287 287 286 287 287 287 289 290 291 293 295 294 295 295 295 296 296 297 298 298 298 298 298 298 298 297 292 292 293 294 295 295 295 295 294 294 294 293 293 293 293 293 292 293 293 293 291 290 288 287 287 287 286 286 286 285 285 286 287 287 287 287 287 287 286 286 286 285 284 284 284 283 283 283 283 282 282 281 281 281 281 281 281 279 279 278 277 279
286 286 289 290 290 288 288 288 286 283 282 284 285 282 285 286 289 290 292 292 292 294 294 294 295 296 296 296 297 298 299 299 299 299 299 294 293 293 293 293 293 295 295 295 295 294 294 293 292 292 292 292 292 292 292 291 290 289 287 287 286 286 285 285 286 286 285 286 287 287 287 287 287 286 286 285 285 285 284 283 283 283 283 282 282 282 281 280 280 280 281 280 279 279 279 278 277
285 284 289 291 289 288 286 285 284 280 278 285 285 280 282 283 285 287 289 290 291 292 292 293 295 295 295 296 297 298 298 298 297 297 297 293 292 293 293 293 294 294 295 295 294 294 293 293 292 292 292 292 292 292 291 291 290 289 289 289 288 287 287 287 288 287 287 287 287 287 287 286 287 286 285 285 285 285 284 283 283 283 283 282 283 281 280 281 281 281 281 280 280 282 279 277 278
284 284 285 287 286 284 285 284 284 284 282 284 284 283 281 283 287 288 290 291 290 291 292 293 294 295 294 295 296 297 298 297 296 295 296 295 294 293 293 293 293 295 295 293 293 293 293 292 292 292 292 292 292 292 291 291 290 289 288 288 289 288 288 288 287 287 287 287 286 287 286 286 286 286 285 285 285 284 284 283 283 282 282 282 282 281 281 280 281 281 281 280 281 281 279 278 277
284 286 285 285 286 285 284 285 283 281 280 281 282 282 281 283 286 291 290 286 287 290 293 295 296 296 295 295 295 296 297 297 296 295 295 295 294 293 294 293 294 293 292 293 293 293 293 292 292 292 292 291 291 291 291 290 291 290 289 289 288 289 288 287 287 287 287 287 286 286 286 285 285 285 285 285 284 284 284 283 282 282 282 282 283 281 280 280 280 280 280 279 280 279 279 279 278
287 287 286 284 283 282 284 283 285 280 280 280 280 283 280 283 288 283 286 287 287 290 292 295 296 296 296 296 296 296 297 297 297 296 296 295 294 293 293 293 291 292 292 292 292 292 292 291 291 291 291 291 291 290 291 290 290 290 289 288 288 288 287 285 286 286 286 285 285 285 285 285 285 285 284 284 284 284 284 283 282 282 282 282 282 281 280 280 280 280 280 280 279 279 279 279 278
287 286 286 282 282 279 278 278 279 280 279 281 282 284 283 279 284 284 285 285 289 291 290 292 293 294 296 296 296 297 297 298 297 296 294 293 291 292 291 292 291 290 290 291 291 291 291 291 291 291 291 291 291 290 290 290 290 290 289 289 288 288 286 285 285 285 285 284 285 285 285 285 285 284 284 284 284 284 283 283 282 282 281 282 282 280 280 280 280 280 279 279 279 279 278 279 281
287 288 281 284 284 277 276 272 277 275 277 281 283 283 284 279 280 281 286 285 286 289 289 292 293 294 295 296 296 296 297 297 295 293 294 292 290 289 289 290 290 290 289 290 290 291 291 291 291 290 290 290 290 290 290 290 290 290 289 289 288 288 287 286 285 285 285 285 285 285 285 284 284 284 283 283 283 283 283 282 282 281 281 281 281 280 280 280 280 279 279 279 278 278 278 279 279
285 282 283 280 274 273 272 271 271 272 279 279 281 283 280 282 287 284 285 287 286 288 292 292 293 293 294 294 295 296 296 292 292 293 293 292 292 290 290 290 289 289 290 290 290 291 291 291 290 290 290 290 290 290 290 290 289 289 290 289 289 289 288 287 286 286 286 285 285 285 284 284 284 283 283 283 283 282 283 282 281 281 281 281 281 280 280 280 279 279 279 278 278 278 278 278 277
284 285 281 278 273 271 268 268 268 272 278 279 280 282 282 286 285 289 292 294 295 293 292 292 293 294 294 294 295 295 293 292 293 293 293 293 292 291 291 291 290 290 289 290 290 290 290 291 290 290 291 290 290 289 289 289 290 290 290 290 289 289 288 287 287 287 286 286 286 285 285 284 284 284 283 283 284 283 283 282 282 281 281 280 280 280 279 279 279 278 278 278 278 278 277 277 277
287 285 287 284 280 271 269 272 278 280 282 277 278 277 276 276 282 285 292 291 289 289 292 292 291 291 292 292 291 291 291 292 293 291 292 293 293 292 291 291 291 290 290 290 290 290 290 290 290 290 290 290 290 290 289 289 290 290 290 290 289 289 288 288 288 288 287 286 286 285 285 285 284 284 284 284 284 283 283 282 281 281 280 280 280 279 280 279 279 278 278 278 277 277 277 277 276
283 283 281 280 282 282 282 284 281 282 276 276 274 279 278 285 287 288 285 288 291 289 289 289 292 292 292 292 294 294 295 294 291 291 292 292 291 291 291 291 291 290 289 289 289 289 289 290 290 290 290 290 290 289 289 289 290 290 289 289 289 289 288 288 288 287 287 287 286 286 285 285 285 285 284 284 283 283 282 281 281 280 280 280 279 279 279 278 278 278 277 277 277 278 276 276 276
282 285 282 287 285 286 283 281 280 278 275 279 281 278 283 286 292 293 294 290 289 288 289 289 290 292 292 292 293 294 294 292 291 291 292 292 290 290 291 291 291 290 289 289 290 290 290 290 290 289 290 290 289 290 290 290 289 289 289 289 289 288 288 287 287 287 287 286 286 286 285 285 285 284 284 284 283 282 282 281 280 280 279 279 279 279 278 278 278 278 277 277 276 277 276 276 276
283 280 284 286 286 283 282 276 274 277 277 279 285 282 283 281 282 284 284 285 286 286 287 288 289 289 289 291 292 293 293 292 291 291 290 290 291 291 291 291 291 291 291 290 290 290 291 290 290 290 289 289 290 290 289 289 289 289 289 289 289 289 288 288 288 287 286 285 285 285 285 284 284 284 284 283 282 282 281 281 280 279 279 279 279 278 278 278 277 277 277 276 276 276 276 275 275
285 283 286 285 278 278 280 273 274 276 276 277 279 284 284 285 285 287 286 288 287 287 286 286 288 288 288 290 292 292 292 291 292 292 292 292 292 292 292 291 292 291 291 291 290 290 290 289 290 290 289 290 290 290 289 289 289 289 289 289 288 288 288 288 287 287 285 285 284 285 284 284 284 283 283 282 281 281 280 280 280 279 279 278 278 278 278 277 277 276 276 276 276 276 275 275 275
286 287 284 283 282 279 277 281 276 280 278 280 280 283 281 288 283 286 284 285 284 284 284 286 288 289 290 290 291 292 292 293 293 293 294 294 294 294 293 292 291 291 290 290 289 289 289 290 289 289 290 289 288 289 289 289 289 289 289 289 288 288 288 287 287 286 285 285 284 284 284 283 283 283 282 282 281 281 280 280 279 279 278 278 278 277 277 277 276 276 276 275 275 275 275 274 274
284 285 283 284 283 282 282 282 280 282 280 279 279 278 283 289 284 285 285 282 282 287 289 290 292 293 295 294 293 293 293 293 293 293 295 295 294 293 292 291 290 288 287 287 288 289 289 289 288 289 289 289 288 289 289 289 289 289 288 288 288 287 287 287 286 285 285 284 284 284 284 283 282 282 282 281 281 281 280 280 279 279 278 278 277 277 277 277 276 275 275 275 275 275 274 274 274
286 287 285 287 285 282 281 279 285 280 281 279 280 278 285 291 293 289 287 285 288 291 290 292 292 293 293 294 293 292 293 293 293 296 297 296 294 292 291 288 287 286 287 288 289 287 287 288 289 289 288 288 288 288 288 288 288 288 287 287 287 287 286 286 285 285 284 284 284 284 283 282 282 282 281 281 281 281 280 279 279 278 278 277 277 277 276 276 276 275 274 274 274 274 274 273 273
Wind_Speed
4 4 3 1 1 1 1 5 1 3 2 4 4 0 3 1 2 1 1 1 1 2 1 1 1 2 1 3 5 4 2 7 6 9 5 1 1 3 6 9 8 6 7 5 4 3 4 7 11 12 12 11 11 11 11 10 10 10 10 9 10 10 10 11 11 11 10 10 10 10 10 11 10 10 11 11 11 11 11 11 11 10 10 11 11 12 12 13 12 14 14 13 13 13 12 12 13
2 3 3 1 0 1 0 1 3 3 4 3 6 1 5 3 1 4 5 5 3 2 2 1 4 8 9 10 7 5 1 1 2 1 1 5 1 2 6 10 8 9 6 5 4 4 4 4 11 12 12 12 12 11 12 11 10 10 10 10 10 10 10 10 10 10 10 9 10 10 9 9 9 10 11 11 11 11 12 12 11 11 11 11 12 13 15 15 14 15 14 13 14 13 13 12 12
2 4 3 4 3 3 1 3 2 1 1 3 8 6 3 1 4 4 7 5 3 3 3 2 2 3 3 2 1 2 4 1 2 1 1 0 6 7 7 9 8 8 7 4 5 4 4 4 9 13 13 13 13 13 12 12 11 10 10 10 10 10 10 10 10 10 10 9 10 10 9 9 9 9 10 11 11 12 12 12 12 12 11 10 11 14 15 14 13 14 13 12 12 12 12 12 12
1 1 1 2 1 3 2 3 4 4 1 5 5 5 3 3 5 6 4 5 3 2 1 1 2 1 4 0 2 4 0 1 4 6 4 8 8 8 7 9 8 7 5 5 4 4 4 5 9 12 12 12 13 13 13 13 12 12 11 11 11 11 11 11 10 10 10 10 10 10 9 9 9 10 10 11 12 12 12 12 13 12 11 11 12 13 12 12 13 13 13 12 12 12 12 12 11
3 2 1 2 4 1 1 1 2 3 3 4 3 4 5 5 5 4 2 2 3 2 1 2 3 0 1 1 2 1 4 2 1 6 1 3 2 6 8 10 8 8 6 5 5 4 4 6 9 12 12 13 13 13 13 13 13 12 12 12 12 12 12 11 11 11 11 11 11 11 11 11 11 11 11 12 12 12 12 12 13 13 12 12 12 13 13 12 13 13 13 13 12 12 12 12 11
1 4 2 2 0 2 4 0 1 4 8 4 1 5 4 7 6 6 2 2 2 1 2 2 2 3 0 0 2 1 3 3 2 3 4 8 7 7 9 9 9 8 6 5 5 4 4 7 8 12 13 13 13 13 13 13 13 13 13 12 12 12 13 12 12 12 12 12 13 13 13 13 12 12 12 12 12 12 12 13 12 13 13 12 12 12 12 12 12 13 13 13 13 13 12 12 12
1 4 3 4 2 4 4 2 6 5 10 8 5 5 8 5 5 4 2 0 1 1 1 2 2 3 0 1 0 1 1 2 4 3 7 6 8 8 9 9 9 8 6 6 4 4 4 8 12 13 12 13 13 14 13 13 14 14 14 14 14 14 14 14 14 13 13 13 13 13 13 13 13 13 12 12 12 12 12 12 13 13 13 12 12 12 12 12 12 12 12 13 13 12 12 12 12
1 1 1 1 1 2 0 2 5 5 5 8 4 4 5 6 5 4 5 2 2 4 1 2 1 3 2 2 2 1 3 1 3 1 5 10 9 8 9 10 10 8 6 5 5 4 6 10 12 14 14 14 14 14 14 14 15 15 14 15 14 14 14 14 14 13 13 13 13 13 13 13 13 13 13 12 12 12 12 12 12 13 12 12 12 12 12 12 13 13 13 13 13 12 12 12 12
3 2 0 4 0 2 1 4 6 3 6 3 10 7 5 6 7 5 5 2 1 1 2 2 4 3 3 2 2 1 4 2 0 5 8 10 12 9 8 10 11 8 7 5 5 4 4 9 12 15 15 15 16 16 16 15 15 15 15 14 15 14 14 14 14 14 14 14 14 14 13 14 13 13 13 13 12 12 12 12 12 12 12 12 12 12 12 12 13 13 13 13 13 13 12 12 13
1 2 1 1 2 3 3 7 0 5 4 5 5 7 4 5 6 4 6 1 4 2 4 1 1 1 2 4 1 1 2 3 4 5 8 10 10 8 8 8 9 10 7 6 5 4 4 8 12 15 15 15 16 16 16 16 15 15 15 14 14 14 14 14 14 14 15 15 14 14 14 14 14 13 13 13 13 12 12 12 12 12 12 12 12 12 13 13 13 13 13 13 13 13 13 13 13
0 4 2 2 0 1 4 7 5 7 4 5 8 5 5 6 6 3 3 2 2 4 1 1 1 3 1 2 3 1 3 4 9 12 11 11 8 9 8 6 8 9 9 6 5 4 4 5 11 13 13 15 15 16 16 15 15 15 15 15 14 15 15 15 15 15 15 15 15 15 15 14 14 14 14 13 13 13 12 12 12 12 12 12 13 13 13 13 13 14 14 14 14 13 13 13 13
1 0 1 2 3 5 5 3 5 8 8 3 4 1 4 8 3 1 3 2 3 1 6 7 3 6 1 1 2 3 0 5 9 10 11 8 8 7 9 7 8 7 8 7 5 4 4 4 5 9 11 12 12 14 14 14 15 15 15 15 15 15 15 16 16 16 16 16 15 15 15 15 14 14 13 13 13 13 13 12 12 13 13 13 13 13 13 13 14 14 14 14 14 14 13 13 14
2 1 5 3 3 2 2 1 7 3 5 5 4 0 4 5 6 7 5 3 2 4 4 10 2 5 2 3 2 2 5 9 5 6 8 7 6 6 7 8 8 8 7 7 6 5 4 4 4 4 6 10 10 11 12 14 15 15 15 16 16 16 16 16 16 16 16 16 16 16 15 15 15 14 13 13 13 13 13 13 13 13 13 13 13 13 13 13 14 14 14 14 14 14 14 14 14
2 4 3 2 1 2 1 5 3 4 5 4 2 1 4 3 5 5 5 3 5 6 4 7 2 4 2 2 2 4 9 8 5 5 5 4 5 6 7 6 7 8 7 8 8 6 5 4 4 4 5 5 5 8 11 12 14 15 15 15 15 15 16 16 16 16 16 16 16 15 15 14 14 14 14 13 13 13 13 13 13 13 13 13 13 13 13 13 13 13 13 13 13 13 13 13 13
0 1 3 1 2 1 3 2 3 2 6 2 2 1 1 3 0 2 6 5 10 4 1 2 4 3 6 8 7 8 11 12 8 5 5 5 5 6 6 6 6 5 6 6 6 6 6 5 5 4 4 4 5 5 5 8 12 13 15 14 14 15 15 16 16 16 16 15 15 14 14 13 13 13 13 14 13 13 12 11 13 13 13 13 13 13 13 13 13 13 13 13 14 14 14 14 13
2 4 2 1 3 1 5 3 0 1 6 3 3 1 0 3 1 1 4 3 1 1 2 5 1 4 2 7 2 6 10 12 8 7 7 6 5 4 5 5 5 6 6 6 6 5 5 5 4 4 4 4 4 4 5 5 9 11 13 14 14 14 14 15 15 15 13 12 13 12 11 9 9 8 11 8 11 11 11 8 12 12 12 12 12 12 12 12 13 13 13 13 14 14 14 14 14
2 3 1 1 6 3 4 3 1 3 4 3 5 1 4 2 1 2 0 0 2 2 2 2 5 0 3 4 2 2 10 12 10 9 8 6 6 5 4 4 5 4 5 7 7 7 6 7 6 5 4 4 4 4 4 5 6 10 10 11 11 12 13 13 14 12 11 10 9 9 8 6 5 5 6 5 8 5 8 10 11 12 11 11 11 11 11 12 12 13 13 13 13 13 12 12 12
2 2 3 3 5 1 5 4 5 1 1 3 1 4 3 3 2 1 1 1 1 1 3 3 2 1 1 3 1 7 14 15 12 14 10 9 6 7 7 6 7 10 8 7 7 7 8 7 8 7 6 6 5 5 4 4 4 6 5 5 5 7 9 9 8 6 7 6 8 7 5 5 5 4 4 6 4 4 6 9 9 11 11 10 10 11 11 11 12 13 13 13 13 12 11 6 6
3 1 2 8 4 7 5 3 3 0 4 3 3 2 5 7 2 1 1 3 2 5 4 1 5 3 4 4 5 11 14 13 14 14 16 15 13 15 13 9 9 6 8 8 9 11 10 8 7 8 7 7 6 5 5 5 5 5 5 5 5 6 6 5 5 5 5 5 5 5 6 6 5 4 4 4 4 6 6 8 10 10 10 10 9 10 11 11 12 13 13 13 12 10 5 5 4
4 4 5 8 7 5 5 3 6 4 2 4 4 3 5 3 1 0 3 7 2 8 6 3 6 10 6 3 4 9 13 14 14 16 16 16 15 15 12 12 12 12 12 12 12 9 9 10 11 9 9 9 8 6 6 6 5 5 6 5 6 6 5 5 4 5 6 6 6 5 6 5 4 5 6 8 6 5 6 8 9 8 9 9 9 6 8 10 11 11 12 11 7 4 5 5 5
2 2 5 6 4 3 8 7 8 6 3 2 3 0 0 4 5 2 2 3 10 11 9 11 12 15 9 8 8 9 11 13 13 13 15 15 14 11 14 16 17 16 11 7 6 10 12 12 10 10 9 9 8 7 7 7 6 6 6 6 6 6 5 5 5 5 5 7 6 6 6 5 5 6 5 5 6 5 5 4 3 4 3 3 5 4 3 4 4 5 5 6 5 5 5 5 5
4 9 7 7 0 1 9 6 6 3 3 2 2 2 7 0 0 4 5 10 15 7 8 11 11 12 8 11 12 9 12 14 15 15 17 18 19 18 13 9 6 4 5 9 13 12 13 13 13 11 10 10 10 9 9 8 8 8 7 7 6 6 6 6 5 6 6 7 6 6 6 6 6 6 5 5 5 5 5 4 3 3 3 3 2 4 4 4 4 5 5 6 6 5 6 5 5
5 4 6 6 6 6 4 2 2 3 2 3 3 4 0 2 4 4 7 16 17 5 5 11 13 12 12 12 13 12 13 15 17 19 18 17 16 16 15 14 13 12 11 14 12 11 11 11 12 11 11 10 10 8 7 7 8 7 7 7 8 7 6 6 6 6 6 6 6 7 7 7 6 6 6 5 5 5 5 4 3 3 3 3 2 5 4 4 5 5 5 5 5 5 5 5 5
5 9 1 6 6 11 11 8 5 3 5 8 4 2 3 3 8 1 6 17 18 11 4 7 10 7 7 11 15 19 19 19 20 21 21 23 23 23 21 19 16 11 9 11 11 11 12 15 13 12 12 11 10 9 9 8 7 8 8 7 7 7 7 7 6 6 6 7 6 6 6 7 8 7 6 6 6 5 5 4 4 4 3 3 2 3 4 4 4 5 4 4 4 4 5 4 5
6 9 4 7 4 7 7 6 6 4 7 5 4 5 12 6 6 5 18 19 15 9 5 7 3 3 8 12 16 16 16 16 18 18 13 13 14 14 9 8 8 9 12 12 11 12 13 13 13 14 13 13 10 10 10 8 8 7 7 8 8 7 7 7 7 6 7 6 6 7 6 8 7 7 7 6 6 6 5 5 4 4 3 3 3 3 3 4 4 3 4 4 3 4 4 5 4
6 11 2 4 5 6 6 6 7 7 5 3 2 12 12 6 4 11 25 25 13 6 7 8 5 5 9 13 16 16 16 18 18 15 19 17 10 10 14 13 11 13 17 13 12 13 11 13 15 16 15 14 12 10 9 9 9 9 9 9 8 7 7 7 6 6 6 6 7 7 7 7 8 8 8 6 7 7 6 5 4 4 4 3 3 4 3 4 4 3 4 3 4 4 5 5 4
3 3 4 6 8 7 6 5 7 2 4 4 5 12 13 1 4 13 18 9 1 6 10 7 7 11 11 10 12 14 16 19 20 19 10 8 11 14 16 13 14 18 12 13 14 13 12 13 15 15 14 12 10 12 10 11 10 10 10 9 8 9 8 7 7 7 6 6 7 7 7 7 7 7 8 8 6 7 6 6 5 4 4 3 3 3 2 3 3 4 4 5 5 5 5 5 5
1 2 5 8 6 7 10 6 13 1 7 7 9 12 11 2 2 16 23 2 3 4 6 7 7 11 11 11 11 11 13 16 15 10 17 16 15 16 16 16 18 15 14 17 15 12 12 16 15 15 14 13 12 12 10 10 11 11 10 9 9 8 8 8 7 7 7 6 6 7 7 7 7 7 8 8 8 7 7 6 5 5 4 3 3 3 3 2 3 3 3 4 4 4 5 5 5
1 2 6 10 6 10 16 8 7 5 7 4 7 2 10 3 9 23 20 12 3 4 7 7 9 11 11 9 10 9 14 15 9 12 18 19 18 15 19 19 17 16 14 15 13 12 16 15 14 15 13 13 14 14 12 11 10 9 10 10 9 8 9 8 8 8 8 7 6 7 7 8 7 8 8 8 8 7 7 7 5 5 5 4 3 3 3 3 3 3 4 3 4 4 5 5 4
1 1 1 10 7 9 20 2 3 4 5 7 6 6 8 15 18 20 17 8 1 5 11 11 10 10 9 8 9 11 11 9 11 17 18 17 16 15 18 16 16 15 12 9 10 14 14 10 11 11 13 15 15 12 11 10 10 10 9 9 8 9 9 9 8 7 7 7 7 8 8 8 7 7 8 7 7 7 7 6 6 6 6 4 3 3 4 3 4 4 3 4 4 5 5 5 5
4 2 1 6 6 10 9 1 2 2 3 9 5 6 10 14 18 12 11 7 6 10 13 13 12 11 10 9 9 12 14 13 18 19 18 17 14 12 17 13 13 13 8 9 16 19 15 13 11 11 14 15 14 13 13 12 10 10 10 9 9 10 9 9 8 7 7 8 7 7 8 8 8 7 7 8 8 7 7 7 6 6 6 4 5 3 5 3 3 4 3 4 3 5 5 4 4
1 1 7 3 7 8 15 6 5 6 2 6 6 7 12 17 21 14 4 2 6 9 14 13 11 11 10 9 11 12 14 11 15 15 15 16 14 13 14 15 13 13 15 16 15 11 14 13 14 13 14 15 15 15 13 12 12 11 10 9 9 9 9 9 9 9 8 7 7 7 8 8 8 8 7 7 8 7 7 7 6 6 5 6 5 4 3 4 3 4 2 3 5 5 5 5 5
2 7 6 9 3 6 9 9 4 12 3 1 10 10 3 11 18 16 8 6 7 10 13 12 11 12 12 10 10 11 12 12 11 14 16 16 14 14 13 14 14 18 17 14 14 14 15 15 15 15 17 18 16 15 13 10 10 10 11 10 10 9 9 9 8 7 7 8 7 8 8 8 8 8 8 7 8 8 7 7 6 7 6 6 5 4 4 3 3 4 3 4 5 5 5 5 5
7 1 7 5 6 3 4 10 6 4 7 5 9 9 12 15 11 8 4 3 3 7 13 12 10 10 12 10 10 11 12 13 15 16 17 17 14 15 14 14 16 15 14 15 15 17 18 16 16 16 15 15 13 14 13 11 10 9 8 8 8 9 8 7 7 7 8 8 7 8 8 8 8 8 8 7 7 7 7 7 7 7 6 6 6 4 4 2 3 3 5 3 5 5 5 4 5
8 4 4 7 5 7 13 5 3 2 2 8 6 13 17 16 15 13 13 7 4 8 11 10 9 9 10 10 11 13 13 13 19 18 16 10 12 13 14 13 12 12 12 15 14 14 12 13 12 14 13 14 13 11 10 9 7 6 4 6 7 7 6 6 7 7 7 7 8 8 9 8 9 9 8 8 8 7 7 7 7 6 6 6 6 5 5 4 3 3 4 4 3 4 3 1 2
11 9 8 4 7 7 7 15 8 6 7 8 10 13 16 18 19 18 16 14 14 16 11 9 10 11 12 11 12 12 12 17 20 15 8 7 11 12 13 11 11 12 12 12 13 13 14 13 12 11 13 13 11 10 9 8 7 8 9 5 5 7 7 7 7 8 7 8 8 8 9 8 8 8 8 7 7 7 7 7 7 6 6 6 7 7 6 6 5 5 4 5 5 3 2 1 1
5 2 4 11 12 11 9 17 12 3 3 11 15 17 18 17 16 18 17 13 14 16 17 16 12 12 15 15 15 16 15 18 20 7 8 9 10 12 12 11 11 10 10 12 13 15 16 17 15 16 14 14 13 13 12 12 12 9 7 11 13 11 10 8 8 8 8 8 9 9 9 8 8 8 7 8 8 7 6 6 7 5 6 6 6 7 6 6 5 5 5 3 5 5 2 2 2
7 7 7 14 6 15 15 14 10 4 6 5 9 16 17 17 17 17 13 8 18 17 18 19 17 14 14 16 18 19 19 14 13 11 7 6 8 9 10 10 9 12 12 14 16 19 17 15 17 16 13 15 15 16 15 14 14 15 16 15 12 11 11 11 11 10 10 9 9 9 8 8 9 9 8 7 7 8 8 7 7 7 7 6 5 4 5 4 4 4 5 4 1 4 2 1 3
6 9 9 9 10 15 15 11 16 9 3 12 12 18 17 16 16 14 14 16 18 15 16 20 17 14 14 15 17 19 16 16 16 16 10 7 7 9 10 11 13 17 17 19 19 15 14 16 16 15 15 16 15 15 14 15 12 10 10 8 11 7 6 6 6 6 6 7 8 8 8 8 9 8 8 8 8 8 8 8 8 7 7 7 7 6 5 5 5 5 5 6 6 2 3 2 3
5 7 5 12 11 5 12 4 7 0 6 5 4 13 12 11 10 13 16 18 18 16 16 18 16 15 17 18 17 17 16 15 18 20 18 8 8 9 9 10 13 13 12 11 12 17 15 15 15 16 16 15 14 15 15 13 11 6 4 5 5 6 6 4 4 4 5 6 8 8 8 9 9 9 8 8 7 7 8 9 7 7 8 7 7 8 6 6 5 4 4 4 7 5 2 1 1
7 11 9 12 12 14 12 8 4 6 5 4 11 15 15 12 17 13 15 19 17 17 17 15 17 14 17 16 14 16 19 19 18 18 15 7 8 11 14 14 11 13 14 16 17 16 14 18 18 17 15 16 14 15 14 10 9 7 6 6 5 5 4 5 5 6 8 8 8 10 11 9 10 9 9 9 8 9 7 7 8 7 7 7 7 7 7 7 6 5 6 5 4 7 5 2 0
6 7 14 20 15 11 10 13 9 4 6 3 1 12 15 9 17 17 12 11 12 15 14 17 20 17 15 17 21 20 17 18 19 20 17 9 11 8 8 9 13 14 16 16 16 17 15 14 15 15 12 12 13 13 14 12 12 13 11 10 10 9 9 10 15 17 13 13 14 8 7 10 10 9 9 9 8 7 8 8 7 8 8 8 7 7 6 6 5 5 6 5 6 4 7 6 3
6 7 14 17 11 9 8 11 4 6 4 2 1 1 22 6 6 9 9 11 14 9 9 16 17 16 14 15 17 18 17 16 14 14 13 7 10 10 12 14 16 15 16 12 12 13 14 14 15 16 15 13 13 13 15 12 12 12 16 17 16 16 16 14 10 7 11 9 8 11 10 8 10 11 9 9 9 8 7 7 8 7 7 7 6 7 7 7 7 6 5 5 6 7 6 5 6
8 3 5 7 6 6 6 5 6 8 0 3 2 6 8 25 7 11 14 15 12 13 14 16 16 16 12 12 16 18 19 15 11 11 12 12 11 14 16 16 14 17 12 10 11 11 14 16 16 16 13 13 13 13 16 15 16 15 15 14 13 14 16 14 12 10 8 8 9 10 9 10 10 10 10 9 9 9 8 8 8 7 7 7 7 8 8 7 6 4 5 4 5 6 7 8 6
5 1 7 4 6 5 3 3 3 2 5 9 4 2 5 15 4 12 12 6 7 13 17 18 17 14 13 15 16 16 18 19 12 11 14 14 13 15 14 14 15 9 9 12 14 14 12 11 12 12 13 13 13 15 16 16 15 16 16 13 13 12 11 7 7 6 8 9 10 8 9 9 9 9 9 10 9 9 9 9 8 8 8 8 7 7 7 7 8 8 6 6 6 6 5 6 7
4 5 6 5 5 4 1 1 1 4 3 12 7 5 4 23 9 2 1 4 9 12 16 17 16 12 13 13 12 14 14 15 15 14 14 9 10 10 9 5 6 10 8 8 7 8 10 10 13 14 15 13 13 15 16 16 15 13 13 15 17 12 9 6 7 9 9 9 11 10 10 9 9 9 9 9 9 9 9 9 9 9 9 8 7 8 8 8 7 7 7 7 6 6 5 6 6
4 4 3 4 7 3 4 6 2 5 9 12 11 11 9 14 5 8 9 8 10 11 5 8 10 11 14 14 14 12 14 15 14 11 7 6 5 5 5 9 9 7 7 9 11 12 12 13 14 16 16 13 13 16 16 17 15 14 15 16 16 15 12 10 10 11 9 9 12 12 11 10 9 10 8 9 10 10 9 9 9 9 7 7 8 8 9 9 8 7 6 5 6 7 6 6 5
4 1 2 4 5 6 3 4 3 3 13 5 12 13 13 13 3 4 5 2 2 7 8 11 12 14 14 12 12 13 14 12 6 5 9 5 3 5 6 8 9 10 8 10 10 10 12 13 13 16 14 15 14 14 15 16 15 16 15 15 17 16 14 13 16 15 15 15 14 12 10 8 9 8 8 8 9 10 10 9 8 7 8 8 8 7 7 7 7 6 6 6 5 5 5 6 6
5 4 2 3 6 6 3 3 1 6 13 2 5 6 3 21 12 4 8 9 6 7 9 11 12 13 13 13 13 13 12 6 5 7 6 6 8 10 11 10 8 12 14 13 14 13 13 13 16 17 18 16 16 15 17 17 16 17 17 17 16 14 15 16 16 15 14 14 13 12 12 12 10 10 11 11 11 13 11 10 10 10 9 8 8 7 6 7 7 6 6 5 5 6 7 7 6
7 7 6 6 5 4 5 5 3 6 7 5 6 2 12 11 6 10 16 18 15 11 9 10 12 13 14 12 10 11 10 7 8 8 8 8 9 9 10 11 13 12 11 12 12 12 13 12 15 17 19 16 14 14 16 17 19 19 16 15 14 13 15 15 14 15 14 13 12 14 14 14 14 15 14 14 13 13 11 11 10 9 7 7 7 8 7 7 7 7 6 6 6 5 6 7 7
14 4 14 12 10 6 5 6 13 11 10 2 3 4 8 2 6 4 12 5 4 3 8 7 6 7 8 9 10 11 12 12 10 4 3 6 9 9 10 12 12 12 12 12 12 13 12 12 14 17 14 15 17 19 16 18 18 17 16 15 13 12 14 13 13 12 13 14 13 14 13 12 13 13 13 12 11 13 12 10 10 10 10 9 8 8 7 7 7 6 6 6 5 6 6 7 7
2 2 3 1 9 6 11 10 8 10 3 4 3 8 4 9 1 3 2 5 9 5 5 6 10 11 10 12 14 14 13 12 5 2 5 7 6 6 7 9 10 9 11 11 12 12 13 15 16 17 18 16 15 15 16 18 18 14 14 15 17 15 11 11 10 10 12 14 14 15 14 14 12 11 10 10 11 12 12 11 10 11 10 9 9 9 9 8 8 8 7 7 7 5 7 7 7
4 7 7 14 2 7 7 4 2 2 1 16 4 6 10 8 17 11 10 7 9 6 7 7 10 13 11 11 13 12 13 9 7 5 7 5 5 6 9 9 9 8 9 14 17 16 19 17 15 16 16 14 16 18 19 17 15 14 16 17 15 14 15 16 16 15 14 11 12 13 13 13 11 10 11 11 12 11 11 11 11 10 11 10 10 9 9 9 9 9 8 8 8 6 7 7 7
8 3 9 2 2 4 3 7 1 5 12 11 8 20 12 2 15 3 3 2 5 5 7 5 6 7 8 10 10 11 12 11 9 7 5 5 5 8 8 8 10 13 17 16 17 16 15 15 16 17 14 16 17 18 17 16 17 18 16 17 17 17 16 16 13 12 10 10 11 11 11 11 15 13 11 10 11 13 11 12 11 11 10 10 11 9 9 10 9 8 8 8 7 7 7 6 6
3 5 2 5 3 5 3 4 5 7 11 7 8 18 19 12 17 7 7 9 7 6 6 3 5 6 5 6 11 12 13 11 11 10 7 8 10 11 12 14 14 13 11 11 10 8 8 10 13 14 18 20 18 13 10 10 11 12 13 16 17 16 14 14 12 10 10 12 13 13 14 14 11 12 12 12 13 13 12 12 12 12 11 12 10 10 10 10 10 9 8 8 8 8 7 7 5
0 1 3 1 1 3 5 8 2 4 15 9 12 12 16 8 4 3 5 9 5 2 3 4 6 6 6 7 7 9 10 11 11 11 11 11 12 13 13 13 13 13 12 9 9 9 12 13 11 12 12 9 9 14 16 16 16 15 14 13 13 14 15 14 13 12 12 14 13 12 12 12 15 12 13 14 14 15 15 15 13 13 12 12 12 10 11 11 10 9 9 8 8 8 7 7 6
3 3 5 1 1 3 2 3 3 7 11 10 10 12 8 11 3 4 5 5 5 1 6 8 10 12 14 12 11 10 11 11 10 11 13 13 12 10 9 7 7 5 5 7 9 14 14 10 11 13 15 16 15 16 14 16 14 16 15 16 16 16 16 14 12 13 13 13 11 12 12 12 8 13 14 15 16 16 16 15 15 14 14 13 13 12 11 10 10 9 8 8 8 8 8 7 7
6 9 11 13 10 8 10 13 3 3 6 11 11 15 5 5 7 6 5 6 5 6 6 9 9 12 13 11 9 8 10 10 10 12 13 12 9 6 5 4 4 5 6 10 12 8 8 13 16 15 12 11 14 15 15 17 15 15 16 16 15 13 12 11 13 13 14 13 12 12 12 10 14 13 13 15 15 14 14 15 15 15 14 13 13 13 12 11 11 10 9 7 9 9 8 8 7
Wind_Direction
327 325 311 325 96 81 58 4 76 307 47 258 312 226 257 226 212 88 200 330 191 261 227 343 48 110 183 206 169 163 180 128 204 129 210 230 267 211 146 140 141 140 143 157 142 130 151 156 151 140 144 143 140 138 124 126 125 124 116 117 113 110 109 109 106 106 103 104 102 105 101 94 89 82 82 82 80 75 72 69 65 60 60 62 68 68 71 71 70 63 59 57 49 43 39 35 33
323 324 337 244 193 75 293 118 97 347 37 356 252 125 249 277 105 207 190 197 203 180 210 129 63 69 64 93 113 121 71 254 177 175 291 249 315 258 171 145 150 146 148 154 149 142 153 171 152 146 148 148 143 143 136 135 134 128 130 124 121 121 120 112 113 115 116 111 111 105 104 102 97 90 84 81 78 75 68 66 61 57 57 57 57 55 55 56 57 63 61 54 51 42 38 33 30
348 354 17 31 29 77 76 41 294 37 41 291 275 214 310 279 212 227 218 217 222 161 124 140 112 61 68 56 64 156 236 125 85 143 163 216 146 214 177 151 156 148 147 157 147 150 160 191 152 149 146 144 142 138 134 138 136 136 133 130 126 126 123 114 118 116 113 113 110 110 107 101 96 88 82 81 79 75 72 66 60 58 58 60 59 55 55 55 53 53 56 55 52 46 42 36 32
40 31 92 64 254 28 67 27 96 127 183 218 304 275 229 208 238 216 241 239 217 96 206 187 137 238 112 316 206 72 84 236 200 159 138 210 207 163 156 154 150 142 139 150 154 156 175 181 150 147 147 142 140 137 137 139 139 141 139 137 132 130 127 127 125 123 119 117 115 115 115 113 106 96 92 85 81 76 72 67 63 59 62 62 58 57 56 54 52 50 50 50 48 43 39 36 33
15 319 91 93 110 357 108 185 153 113 227 202 205 271 260 221 232 199 245 250 266 230 144 193 88 318 192 142 156 172 233 215 296 194 186 203 216 151 145 148 144 140 153 160 155 161 175 172 157 149 149 147 142 138 142 143 142 142 140 139 138 136 133 130 129 126 124 122 120 117 115 111 109 107 95 90 85 82 78 75 70 65 61 61 62 61 59 56 53 50 47 46 45 41 38 36 34
38 40 11 88 126 176 53 8 298 204 224 149 272 254 244 230 194 203 230 276 252 236 207 154 174 191 195 243 195 219 180 131 187 198 161 198 179 143 146 145 141 147 159 161 159 160 171 165 153 157 153 151 146 143 142 144 144 143 143 140 138 135 133 131 127 125 122 120 116 114 110 107 104 97 93 89 87 86 83 82 79 75 71 67 65 64 62 58 55 53 49 46 43 39 37 37 38
358 32 355 22 5 54 180 178 236 210 263 172 240 250 255 226 219 152 190 110 277 9 185 200 109 96 54 272 358 223 235 227 120 230 166 168 161 145 150 146 142 152 158 163 161 157 173 166 163 160 158 154 150 148 148 147 146 146 145 143 138 135 133 132 130 127 123 119 116 112 109 105 101 97 94 91 89 86 85 84 82 81 78 75 70 68 66 62 58 55 52 49 46 43 40 40 40
84 111 305 105 227 42 226 227 254 160 273 177 220 227 249 204 175 189 189 127 231 165 210 279 225 114 229 102 188 259 337 201 235 248 134 149 154 150 152 148 145 157 161 162 162 159 176 171 171 164 162 158 155 153 152 150 149 146 144 141 138 136 135 132 128 125 122 119 116 113 109 106 102 99 96 94 90 88 85 83 82 80 79 77 74 71 68 64 58 54 51 49 47 45 46 45 43
348 92 10 75 197 30 4 239 253 226 276 276 270 231 252 190 172 157 182 225 349 258 215 212 223 134 250 174 211 280 282 284 310 154 140 156 160 152 155 156 150 158 161 162 163 168 176 180 171 168 165 161 158 157 156 153 151 149 146 143 140 137 135 132 129 126 124 121 117 114 111 108 104 101 99 96 92 89 86 84 82 81 79 77 74 72 69 66 63 59 56 52 50 49 46 42 37
14 90 294 152 132 245 334 287 208 240 223 229 240 258 183 163 189 196 175 249 208 126 236 236 215 185 147 194 294 281 249 154 133 111 156 165 156 146 154 160 152 149 156 161 165 169 174 172 169 169 166 163 162 160 158 155 152 149 146 142 139 137 135 132 130 128 125 122 119 117 114 111 108 105 101 97 95 92 89 87 85 83 80 77 75 72 68 63 61 60 56 54 55 54 50 42 40
22 7 145 79 18 225 237 270 251 299 266 310 301 239 214 153 162 214 199 210 165 164 234 182 300 221 138 255 202 282 297 155 149 169 173 169 153 155 153 154 153 153 155 161 166 172 178 174 175 170 168 167 165 162 158 155 152 147 145 142 140 139 137 135 133 130 127 124 122 119 117 115 112 109 105 102 100 96 95 94 91 86 83 79 77 74 70 66 65 62 58 55 53 51 47 44 41
8 60 7 129 197 177 230 217 262 268 288 312 265 186 176 161 136 185 237 194 197 222 173 162 221 143 220 326 277 316 97 195 186 166 169 162 160 157 149 152 152 156 153 157 158 175 178 182 174 174 169 167 164 160 156 154 151 148 146 145 144 142 140 138 135 132 130 126 123 121 119 117 115 113 111 107 103 100 97 95 93 88 83 81 80 78 73 71 70 66 61 58 54 51 49 45 42
118 108 81 100 233 147 230 248 257 279 308 277 216 249 131 138 189 208 211 202 164 134 269 214 87 131 232 212 276 303 193 214 206 170 163 162 157 147 144 152 158 152 156 155 157 172 178 174 172 169 166 161 159 157 156 156 153 152 150 148 147 146 144 142 139 135 131 128 124 120 116 114 114 113 111 107 102 99 96 95 94 91 85 82 82 80 78 76 75 71 68 63 58 53 48 45 44
114 178 120 242 91 206 193 251 289 307 290 251 256 255 166 168 234 189 132 187 208 181 237 185 144 153 228 28 290 240 221 200 199 172 143 135 128 139 148 151 156 158 162 161 167 171 174 170 162 162 159 154 158 157 155 154 155 154 152 150 149 148 146 143 139 136 131 127 123 120 116 112 110 108 108 105 98 92 90 92 92 89 85 82 80 79 76 74 72 70 68 65 62 58 54 49 46
313 174 86 109 294 36 243 171 219 162 262 225 266 145 242 254 102 134 166 193 247 209 329 122 175 107 246 161 270 224 199 190 175 152 128 112 121 134 145 152 156 162 168 173 169 172 180 169 170 158 151 152 156 155 152 158 157 153 151 150 149 149 146 142 137 132 129 129 126 122 118 113 107 102 101 102 99 92 84 80 85 82 80 79 77 76 74 71 67 63 60 57 54 52 48 44 42
157 82 85 203 264 167 270 203 282 125 264 197 273 68 297 282 235 150 246 180 274 330 122 207 231 204 208 168 223 231 166 160 157 129 120 116 110 116 139 154 163 173 177 180 181 193 178 173 171 165 158 159 162 165 158 152 153 149 150 151 151 150 147 143 137 132 126 123 123 120 116 110 106 101 94 87 88 81 76 77 82 81 80 82 84 84 82 80 75 71 66 63 59 53 46 39 35
60 82 274 36 282 161 259 181 148 293 252 274 288 335 191 266 263 240 109 69 152 230 217 222 193 47 190 206 282 122 134 134 129 129 124 131 136 143 149 163 172 188 197 196 187 189 186 178 179 171 175 169 174 177 156 145 150 148 148 149 147 147 148 145 139 130 125 121 117 116 115 113 108 99 91 88 76 68 61 79 87 85 82 85 87 87 85 84 79 74 72 68 64 58 48 39 32
63 191 127 266 202 171 218 201 190 201 236 281 268 223 184 282 302 256 42 318 239 299 229 283 297 27 319 301 55 129 138 144 150 149 162 160 163 166 184 194 178 198 193 197 205 191 186 191 182 178 175 181 178 181 166 151 154 140 140 140 140 147 146 139 134 140 139 136 125 118 120 117 110 103 96 86 74 65 73 80 89 92 86 84 87 87 86 84 80 75 71 67 63 57 53 45 30
151 134 123 232 192 238 162 208 231 157 278 233 240 276 183 232 153 281 209 273 247 256 256 263 261 279 24 46 107 133 145 151 162 170 170 173 182 185 190 187 198 184 201 201 203 196 192 184 183 183 184 180 178 181 171 159 151 146 144 144 149 145 146 143 149 144 145 143 134 128 119 116 117 110 107 108 104 103 92 93 98 96 86 79 78 81 83 79 75 73 68 64 59 56 53 49 41
234 130 235 242 213 242 228 232 269 203 241 269 273 278 164 249 176 54 210 251 296 230 226 266 237 243 213 150 151 151 159 166 173 175 182 188 190 190 187 192 199 205 202 198 194 189 187 189 190 187 182 180 176 177 170 162 158 154 153 154 151 152 153 157 155 148 147 148 145 135 128 126 118 125 122 110 101 92 88 85 82 81 84 80 72 60 58 65 63 59 59 58 52 49 52 46 39
269 129 210 233 217 215 267 239 235 243 176 245 213 317 245 268 218 159 217 317 255 245 218 197 216 229 205 176 172 167 169 173 183 189 190 195 200 202 200 196 195 198 198 178 179 194 193 191 185 189 182 180 178 176 170 171 168 158 161 162 159 161 163 164 162 150 152 150 149 142 137 124 120 116 116 115 112 107 98 90 84 83 81 74 77 73 69 57 57 53 45 45 43 37 35 30 28
113 212 224 220 91 216 255 244 248 209 212 244 259 286 252 64 69 223 179 233 261 229 228 214 226 228 171 177 189 176 178 182 189 192 198 197 196 202 206 218 230 215 172 187 199 193 196 192 187 185 181 184 184 178 176 170 164 166 168 171 163 171 169 171 166 159 158 157 151 145 135 126 125 125 123 118 114 112 107 107 103 96 79 80 71 79 65 58 49 50 48 44 34 33 34 25 22
247 263 253 237 227 240 260 254 220 195 260 227 276 241 358 245 262 230 201 225 252 220 189 200 219 225 192 174 161 181 186 192 194 199 199 203 207 210 206 204 196 198 195 205 195 197 192 192 187 179 184 182 186 181 170 168 176 173 168 171 165 177 175 170 175 170 168 161 153 152 144 141 136 134 129 128 128 124 125 130 131 116 108 86 66 78 64 52 53 50 48 46 37 34 31 24 18
213 254 154 269 211 233 252 263 283 259 248 258 233 10 255 269 285 242 228 243 246 250 194 205 216 223 132 151 179 184 191 194 201 204 199 201 200 203 201 198 203 201 199 205 196 195 190 193 186 179 185 182 183 180 173 177 176 172 175 172 177 174 169 178 178 177 169 167 159 157 147 145 145 142 144 140 147 133 143 143 137 113 104 102 90 84 83 59 55 52 58 47 42 39 38 25 21
205 261 237 264 224 240 254 255 272 266 255 262 315 288 254 210 247 350 269 264 251 251 229 236 224 153 169 176 187 197 198 204 208 211 211 220 216 215 215 220 206 194 208 205 198 195 197 190 184 187 184 185 182 176 180 179 176 175 175 177 181 178 177 181 177 173 174 171 162 160 154 148 145 145 149 151 142 140 143 139 133 129 127 133 113 86 94 90 71 72 69 64 55 43 36 27 21
213 232 236 285 276 282 271 289 255 251 267 180 282 261 266 250 277 273 262 267 265 230 232 229 195 178 185 197 195 195 202 206 211 209 211 213 209 204 214 208 201 202 210 198 193 202 192 187 189 190 186 184 179 176 182 180 181 180 183 182 180 176 181 178 173 180 179 167 168 167 163 155 156 155 152 151 145 148 146 140 132 138 128 136 108 95 99 97 97 78 73 67 59 43 37 18 22
178 231 241 257 273 307 288 233 271 203 242 159 218 269 271 284 149 275 274 249 240 201 229 231 203 221 215 209 207 205 202 210 208 212 213 216 213 211 214 206 205 213 197 201 202 199 190 186 195 192 187 183 177 183 182 185 180 186 185 181 179 182 176 170 179 178 176 176 170 165 162 157 155 154 151 153 148 148 147 143 141 141 118 120 118 108 104 108 104 96 89 73 58 48 33 18 20
279 244 310 285 284 271 260 258 268 330 284 197 207 254 277 289 160 244 261 271 98 179 240 245 225 231 230 221 213 212 213 219 214 197 210 205 212 211 209 204 210 206 197 207 202 190 185 195 192 190 187 181 181 186 183 185 187 186 183 181 185 179 171 175 176 177 180 178 166 167 163 159 156 156 154 154 151 151 150 146 150 133 137 143 120 123 108 104 106 109 90 81 74 65 41 25 15
269 25 321 292 328 314 279 259 268 135 261 157 162 257 290 194 216 241 244 258 289 264 265 254 242 241 240 232 223 215 217 221 203 206 218 214 214 206 212 209 204 201 210 204 191 182 195 192 189 191 185 184 185 186 186 188 185 184 182 187 184 173 176 173 177 181 178 177 168 166 164 160 160 159 161 157 154 150 149 146 145 144 151 143 133 130 111 102 92 86 71 78 70 56 45 23 15
352 43 214 304 317 308 278 118 250 182 251 138 127 276 246 258 236 244 256 259 249 280 268 260 249 245 244 235 229 228 229 219 212 216 219 218 216 209 215 212 205 203 201 190 177 196 195 188 189 184 187 188 189 186 185 185 185 186 184 184 180 174 178 177 181 178 176 175 169 167 163 163 161 162 158 157 151 149 150 149 147 150 154 141 136 124 110 116 107 94 96 78 62 54 43 20 11
268 247 80 245 328 265 275 97 104 187 210 167 144 222 263 268 269 252 251 243 216 246 257 259 256 253 246 241 235 234 233 214 219 220 222 221 219 214 217 214 204 203 185 184 192 198 184 186 183 186 188 189 185 188 187 187 183 184 182 182 181 180 178 180 177 174 177 176 168 167 166 164 164 164 164 155 156 152 151 151 151 157 149 140 128 134 123 110 107 105 111 85 74 59 53 35 16
296 5 258 320 202 274 293 295 173 231 282 192 122 254 242 254 265 268 229 197 179 229 250 253 255 258 251 244 242 242 243 224 232 232 228 225 217 216 211 212 200 195 195 196 197 180 187 186 185 186 184 187 189 188 187 185 183 183 183 182 179 181 178 180 179 179 177 171 170 167 170 165 166 166 165 160 154 159 156 155 159 154 149 134 133 130 113 119 116 106 94 97 75 44 36 19 17
338 200 259 260 192 259 342 290 192 212 159 264 180 232 271 280 262 269 269 234 208 228 251 256 255 255 258 248 243 245 254 251 237 233 228 221 216 214 211 209 200 200 198 190 187 184 188 186 185 185 186 189 188 187 183 183 179 181 183 183 181 179 181 181 180 174 170 173 172 169 171 168 167 168 168 166 156 159 158 153 159 155 147 139 138 123 117 141 127 113 80 71 86 74 42 10 352
267 181 220 214 237 262 254 295 272 200 167 210 237 243 236 249 266 268 297 182 185 223 248 253 252 252 251 254 251 248 245 252 248 237 229 217 213 208 209 206 205 200 197 193 189 184 187 183 186 189 187 186 183 182 182 181 181 176 180 181 180 184 185 179 175 172 178 177 171 172 172 168 170 170 170 167 159 161 157 153 155 152 144 137 133 125 123 104 109 116 94 65 77 77 48 19 343
234 226 244 281 264 228 250 287 274 81 235 224 233 235 249 254 265 272 266 255 204 233 245 251 256 260 262 255 253 250 248 248 249 244 236 209 209 209 207 206 202 197 197 193 186 188 181 183 183 186 180 180 181 177 174 172 166 163 158 170 181 187 184 181 172 180 182 175 180 171 171 173 173 172 169 166 159 158 155 152 151 155 145 141 135 129 125 122 107 92 110 91 67 90 109 51 311
238 228 250 258 261 245 233 248 255 226 247 231 234 240 245 251 260 263 267 264 264 263 258 259 260 263 265 255 252 253 247 249 251 246 245 194 203 199 204 201 200 197 194 185 184 182 184 181 183 181 182 176 169 167 161 163 163 169 172 172 189 200 190 180 187 186 177 184 181 174 177 175 172 171 169 166 160 159 155 158 153 154 151 145 143 142 150 152 145 125 123 112 90 66 61 94 346
276 295 247 252 259 270 260 265 266 185 268 232 243 247 251 255 250 254 255 266 267 265 267 262 251 248 253 259 255 250 249 248 254 246 229 209 199 200 199 192 195 191 189 181 182 186 186 183 176 183 179 171 171 172 175 170 173 175 184 192 197 190 188 182 185 188 186 187 182 181 178 173 172 169 170 166 166 161 155 151 150 158 158 155 157 165 164 163 161 153 139 127 118 90 55 24 349
246 257 269 267 250 273 250 266 273 231 202 254 238 256 255 252 253 256 262 263 261 255 260 259 255 247 249 250 254 253 249 258 270 266 241 219 205 199 191 188 176 179 194 184 187 191 187 179 183 181 172 179 181 179 177 180 184 185 184 192 188 183 181 185 191 191 191 185 184 182 177 175 175 175 171 171 166 163 159 161 163 168 164 165 163 155 157 158 150 145 143 91 56 120 121 78 355
242 236 250 281 263 257 275 263 268 264 165 266 257 262 259 254 251 256 259 252 256 253 247 256 256 251 248 249 251 254 256 256 263 262 246 215 208 200 190 190 192 193 188 189 194 182 181 184 186 177 180 180 185 180 177 186 187 188 187 181 180 178 197 197 189 184 173 181 185 181 177 178 176 175 175 173 169 172 168 163 171 169 169 163 153 157 162 161 164 168 174 143 117 64 111 100 56
215 242 256 248 254 281 288 194 270 79 187 283 251 268 267 269 261 252 252 254 253 256 254 257 253 250 250 245 244 254 256 252 253 255 254 213 204 200 194 194 196 192 189 193 185 187 186 187 184 181 183 183 181 184 186 186 178 158 138 131 150 147 174 166 162 153 167 163 185 183 187 181 180 178 175 175 174 173 171 172 166 171 174 170 161 158 164 170 169 175 168 155 139 112 109 113 78
194 223 233 255 255 243 240 271 316 294 280 259 288 278 266 236 253 251 249 247 256 260 260 257 259 246 250 259 261 250 253 254 252 255 254 218 201 202 198 199 185 191 193 192 189 187 187 189 185 181 181 184 184 183 180 162 139 126 114 96 100 92 76 145 159 193 186 182 176 193 193 179 179 178 178 180 175 176 174 171 172 173 170 170 160 158 165 174 178 180 172 156 154 138 136 131 351
215 217 214 235 243 267 264 278 325 337 318 305 10 324 285 190 213 230 232 251 246 248 248 253 253 249 245 254 254 253 248 249 250 253 251 224 211 204 207 195 193 199 199 198 190 188 183 183 180 181 180 183 183 179 172 163 168 162 155 156 168 184 188 181 197 198 183 189 195 175 169 184 181 179 181 178 178 171 176 177 174 173 174 170 167 162 157 156 176 175 186 163 141 135 133 130 131
262 258 215 237 242 241 259 278 338 278 249 305 70 214 292 152 220 218 232 238 246 256 244 248 252 249 240 241 253 259 253 251 251 253 256 221 214 199 203 198 199 199 207 188 185 187 183 179 181 180 180 181 180 176 172 169 171 178 181 184 185 187 194 208 202 181 187 188 168 180 184 180 184 179 182 180 179 177 172 173 177 181 176 169 161 152 162 173 175 180 181 161 160 141 128 126 148
259 229 165 211 228 221 231 215 197 256 331 275 185 160 255 295 251 206 209 221 229 245 254 252 249 253 244 239 243 251 258 253 241 243 242 231 213 201 203 205 196 205 190 174 183 181 183 181 180 182 181 180 180 175 177 179 179 183 187 192 192 197 201 201 184 188 177 173 180 184 179 186 185 184 178 182 179 176 172 174 177 177 177 174 165 169 168 169 165 175 179 170 151 148 144 136 148
223 217 139 163 195 211 169 180 214 232 354 308 221 72 293 266 269 194 178 210 239 238 241 248 251 248 247 242 243 245 252 260 251 236 235 225 212 210 207 198 204 187 168 180 184 185 181 177 179 179 183 181 181 180 181 186 187 186 188 189 197 209 203 189 171 172 178 177 183 181 184 184 184 186 183 178 180 177 176 176 176 177 177 177 172 164 165 167 169 167 164 157 161 153 147 142 131
272 112 81 69 61 65 80 83 7 330 360 265 182 177 227 280 317 66 46 188 221 232 234 241 248 255 263 260 251 247 256 259 253 240 243 230 222 219 211 193 173 189 179 175 171 166 172 172 179 182 189 186 183 184 186 189 190 184 189 196 201 197 186 167 166 181 182 178 189 185 186 183 185 183 183 182 177 180 178 176 178 182 182 176 172 170 165 166 170 172 172 164 159 149 143 138 143
111 72 68 9 34 20 23 67 86 13 265 259 179 195 171 270 293 175 141 190 209 218 241 261 270 265 259 259 253 252 243 244 247 248 249 243 223 211 172 183 183 169 174 170 172 175 174 178 181 187 191 184 183 187 186 191 190 191 197 198 199 194 187 175 174 188 182 181 193 190 188 189 183 186 179 185 184 180 182 180 181 184 178 177 170 170 176 173 172 169 166 158 157 152 150 140 134
145 176 125 29 331 12 32 347 39 184 271 235 195 182 186 227 281 282 214 260 224 185 213 238 241 246 248 253 258 251 253 253 255 249 248 213 166 174 169 184 176 180 171 181 179 173 178 183 183 188 189 191 186 186 189 193 192 199 202 198 200 198 184 188 191 191 188 190 191 188 185 178 189 183 183 183 188 185 180 185 182 174 180 178 181 177 171 168 165 159 160 158 161 153 143 140 142
114 106 89 222 265 28 314 22 322 199 236 274 204 170 329 240 243 228 267 254 246 202 210 221 232 244 249 256 257 260 259 286 248 232 226 207 200 186 191 188 173 184 191 184 182 182 181 184 186 187 196 191 189 186 192 194 195 202 202 201 203 195 195 195 196 195 190 191 188 185 180 190 182 184 192 189 193 184 181 179 179 182 183 186 175 170 170 163 160 160 160 159 159 163 160 150 150
126 161 164 129 246 236 249 264 252 294 285 243 161 192 244 279 296 215 252 257 248 236 224 223 225 233 244 248 256 271 287 273 259 228 214 207 206 203 197 189 191 190 189 185 184 185 187 188 189 195 200 189 188 189 195 195 202 204 203 204 202 197 203 199 199 198 192 192 187 189 188 189 187 194 187 195 188 182 185 186 182 181 175 169 170 172 166 164 161 160 161 161 167 168 150 147 147
199 140 158 192 177 153 215 205 240 240 245 309 264 121 231 27 241 241 216 256 340 260 235 250 290 292 280 291 301 290 283 280 260 280 244 222 221 203 198 198 195 192 187 185 188 191 184 190 191 200 195 196 194 195 192 199 205 203 202 204 203 203 206 202 207 202 191 189 190 190 192 190 192 194 192 191 176 184 185 177 179 175 174 173 170 168 165 161 159 153 158 158 159 162 155 145 144
223 157 58 49 230 150 231 224 240 263 299 310 198 216 203 243 119 270 237 275 270 299 299 262 255 254 260 269 268 267 268 269 338 253 242 239 225 212 208 206 203 194 189 189 191 189 191 199 197 198 198 197 200 198 200 202 205 201 202 201 205 204 205 207 210 207 203 194 189 189 190 190 193 186 186 176 183 180 180 178 176 178 171 169 171 170 165 163 162 158 158 160 165 173 153 149 151
223 111 192 217 146 174 252 310 293 72 5 257 236 281 271 317 280 261 252 233 265 269 267 259 247 244 248 253 262 274 277 304 310 287 255 252 239 232 220 208 199 191 186 195 197 193 197 195 194 199 200 193 197 204 205 202 201 198 204 206 202 200 203 205 207 206 204 197 190 191 187 190 182 181 181 180 175 178 178 176 175 173 173 173 171 171 167 163 163 162 164 163 168 174 158 158 152
105 190 230 62 107 120 154 220 313 220 237 253 265 267 268 306 286 48 35 11 275 274 258 279 314 332 324 290 291 286 288 291 294 286 289 267 244 238 232 224 211 202 200 199 200 199 199 196 197 198 195 198 206 205 207 203 199 202 204 205 205 204 204 208 207 205 198 194 200 193 183 178 190 184 175 174 172 174 175 176 175 176 175 172 174 170 168 167 163 166 167 170 171 166 158 151 156
168 197 302 144 246 253 246 92 230 232 239 257 219 262 270 245 253 280 310 303 296 304 314 353 315 304 285 291 293 296 296 300 297 293 273 249 231 225 221 220 215 213 211 207 199 194 203 207 205 199 201 206 205 201 206 213 209 208 207 206 205 206 206 205 204 198 189 198 200 198 193 191 171 173 173 171 173 173 174 177 177 176 174 175 173 173 168 168 168 164 170 169 173 168 161 157 156
142 5 306 103 98 234 155 200 206 197 251 243 247 223 256 250 205 233 224 227 237 247 326 330 295 308 294 284 276 279 286 288 289 283 268 251 237 225 220 220 216 209 207 200 187 186 201 208 204 211 217 211 198 200 201 206 208 208 209 205 206 206 206 203 198 193 196 202 201 196 193 184 189 173 177 173 173 177 177 177 179 176 176 174 174 172 172 171 170 173 169 169 174 165 160 158 156
233 230 252 296 221 216 126 309 176 216 250 233 263 248 244 262 210 197 218 211 207 179 332 309 309 303 299 289 279 277 281 282 280 278 276 260 245 241 236 236 239 218 196 192 194 198 204 190 204 210 209 206 207 211 203 210 204 210 206 205 205 203 204 200 195 194 199 201 198 196 196 192 161 186 178 177 179 179 178 177 175 177 176 176 174 174 176 172 172 171 172 168 168 167 161 161 154
206 198 218 218 223 257 256 255 184 255 232 250 249 254 246 290 296 234 227 208 233 278 273 277 275 270 267 265 262 255 261 266 264 271 279 292 291 272 256 253 248 226 215 206 207 198 191 196 206 205 210 215 214 213 208 211 204 209 206 209 206 202 198 194 198 195 197 198 197 196 192 177 189 186 180 183 181 177 177 175 176 178 178 176 176 175 174 172 172 170 171 171 172 167 165 159 158